Home   Weather   Northampton   Past weeks

Flag for United Kingdom Past Weather in Northampton, England, United Kingdom — Yesterday and Last 2 Weeks

Now
55 °F

Light rain. Partly sunny.


Feels Like: 55 °F
Forecast: 51 / 65 °F
Wind: 3 mph from North

Location: Luton Airport

Current Time: Jul 22, 2017 at 5:55:39 am

Latest Report: Jul 22, 2017 at 5:20 am


Visibility: 5 mi

Pressure: 29.71 "Hg

Humidity: 100%

Dew Point: 55 °F

Location of NorthamptonLocation

Past Weather in Northampton — Graph

°F

Northampton Temperature Yesterday

Maximum temperature yesterday: 70 °F (at 4:50 pm)
Minimum temperature yesterday: 52 °F (at 2:50 am)
Average temperature yesterday: 61 °F

High & Low Weather Summary for the Past Weeks

 TemperatureHumidityPressure
High81 °F (Jul 7, 2:50 pm)100% (Jul 8, 11:50 pm)30.27 "Hg (Jul 8, 11:50 pm)
Low52 °F (Jul 12, 11:20 pm)31% (Jul 8, 1:50 pm)29.65 "Hg (Jul 19, 11:20 am)
Average64 °F74%29.97 "Hg
* Reported Jul 7 4:20 am — Jul 22 4:20 am, Northampton. Weather by CustomWeather, © 2017

Note: Actual official high and low records may vary slightly from our data, if they occured in-between our weather recording intervals... More about our weather records

Advertising

Northampton Weather History for the Previous 24 Hours

Scroll right to see more
 ConditionsComfort  
Time TempWeatherWind HumidityBarometerVisibility
4:20 am
Sat, Jul 22
55 °FPassing clouds.3 mph100%29.71 "HgN/A
3:50 am55 °FLight rain. Overcast.3 mph100%29.68 "Hg5 mi
3:20 am55 °FLight rain. Partly cloudy.2 mph100%29.68 "Hg5 mi
2:50 am55 °FPartly cloudy.5 mph100%29.71 "Hg3 mi
2:20 am57 °FLight rain. Low clouds.3 mph94%29.71 "HgN/A
1:50 am57 °FLight rain. Mostly cloudy.6 mph94%29.71 "HgN/A
1:20 am57 °FLight rain. Passing clouds.8 mph100%29.71 "HgN/A
12:50 am57 °FLight rain. Passing clouds.10 mph100%29.71 "HgN/A
11:50 pm
Fri, Jul 21
57 °FLight rain. Passing clouds.9 mph100%29.71 "HgN/A
11:20 pm59 °FLight rain. Mostly cloudy.8 mph94%29.71 "Hg4 mi
10:50 pm59 °FLight rain. Mostly cloudy.9 mph94%29.71 "HgN/A
10:20 pm61 °FLight rain. Mostly cloudy.6 mph83%29.71 "HgN/A
9:50 pm63 °FLight rain. Overcast.13 mph73%29.71 "HgN/A
9:20 pm64 °FPassing clouds.13 mph68%29.71 "HgN/A
8:50 pm64 °FOvercast.14 mph64%29.71 "HgN/A
8:20 pm64 °FScattered clouds.9 mph64%29.71 "HgN/A
7:50 pm64 °FPartly sunny.13 mph64%29.71 "HgN/A
7:20 pm66 °FPartly sunny.10 mph60%29.71 "HgN/A
6:50 pm68 °FPartly sunny.15 mph53%29.71 "HgN/A
6:20 pm68 °FPartly sunny.16 mph53%29.71 "HgN/A
5:50 pm68 °FPartly sunny.14 mph56%29.71 "HgN/A
5:20 pm68 °FPartly sunny.14 mph53%29.71 "HgN/A
4:50 pm70 °FPartly sunny.14 mph50%29.74 "HgN/A
4:20 pm68 °FPartly sunny.14 mph53%29.74 "HgN/A
3:20 pm68 °FOvercast.13 mph53%29.74 "HgN/A
2:50 pm66 °FPartly sunny.15 mph56%29.74 "HgN/A
2:20 pm68 °FOvercast.13 mph53%29.74 "HgN/A
1:50 pm66 °FOvercast.13 mph56%29.77 "HgN/A
1:20 pm66 °FOvercast.13 mph56%29.77 "HgN/A
12:50 pm66 °FPartly sunny.13 mph52%29.77 "HgN/A
12:20 pm68 °FPartly sunny.14 mph49%29.77 "HgN/A
11:50 am66 °FScattered clouds.17 mph52%29.77 "HgN/A
11:20 am66 °FPartly sunny.20 mph52%29.77 "HgN/A
10:50 am66 °FPartly sunny.16 mph56%29.77 "HgN/A
10:20 am64 °FScattered clouds.16 mph60%29.80 "HgN/A
9:50 am63 °FBroken clouds.14 mph68%29.80 "HgN/A
9:20 am61 °FPartly sunny.13 mph72%29.80 "HgN/A
8:50 am61 °FPartly sunny.16 mph72%29.80 "HgN/A
8:20 am61 °FScattered clouds.13 mph72%29.80 "HgN/A
7:50 am59 °FPassing clouds.13 mph82%29.80 "HgN/A
7:20 am57 °FCool.13 mph82%29.80 "HgN/A
6:50 am57 °FCool.12 mph82%29.80 "HgN/A
6:20 am54 °FCool.10 mph94%29.80 "HgN/A
5:50 am52 °FCool.8 mph94%29.80 "HgN/A
5:20 am52 °FCool.8 mph94%29.80 "HgN/A
Weather by CustomWeather, © 2017

See weather overviewHow to use our weather pages